Overview Statistics Trail Chart Weather Telemetry Raw packets
 

This is the latest recevied weather packets stored in our database for station/object I4GOS-3. If no packets are shown the sender has not sent any weather packets the latest 10 day(s).

<< 128 129 130 131 132 133 134 >>
Time Temp. Humidity Pressure Rain* Wind** Luminosity Snow
1787921955 30.56° C 70% 1013.8 hPa 0 mm - - -
1787921655 30.56° C 70% 1013.8 hPa 0 mm - - -
1787921355 31.11° C 69% 1013.9 hPa 0 mm - - -
1787921054 31.11° C 69% 1013.9 hPa 0 mm - - -
1787920754 31.11° C 69% 1013.9 hPa 0 mm - - -
1787920454 31.11° C 69% 1013.9 hPa 0 mm - - -
1787920154 31.11° C 68% 1014 hPa 0 mm - - -
1787919853 31.67° C 68% 1014.1 hPa 0 mm - - -
1787919553 31.67° C 67% 1014 hPa 0 mm - - -
1787919253 32.22° C 67% 1013.9 hPa 0 mm - - -
1787918948 32.22° C 62% 1014 hPa 0 mm - - -
1787918648 32.22° C 62% 1013.9 hPa 0 mm - - -
1787918043 32.22° C 60% 1013.8 hPa 0 mm - - -
1787917739 32.22° C 60% 1013.9 hPa 0 mm - - -
1787917434 32.22° C 59% 1014 hPa 0 mm - - -
1787917235 32.22° C 59% 1014.1 hPa 0 mm - - -
1787917134 32.22° C 59% 1014.1 hPa 0 mm - - -
1787916865 32.78° C 60% 1014.2 hPa 0 mm - - -
1787916833 32.78° C 60% 1014.2 hPa 0 mm - - -
1787916570 32.22° C 62% 1014.2 hPa 0 mm - - -
1787916533 32.22° C 62% 1014.2 hPa 0 mm - - -
1787916289 32.22° C 61% 1014.3 hPa 0 mm - - -
1787916233 32.22° C 61% 1014.3 hPa 0 mm - - -
1787915933 32.22° C 62% 1014.4 hPa 0 mm - - -
1787915683 31.67° C 62% 1014.3 hPa 0 mm - - -

* Rain latest hour (hover to see other rain measurements)
** Current wind speed in m/s (hover to see current wind gust speed)